Regional Weather Roundup
Issued by NWS

Home | Current Version | Previous Version | Text Only | Print | Product List | Glossary Off
Versions: 1 2 3 4 5 6 7 8 9 10 11 12 13 14 15 16 17 18 19 20 21 22 23 24 25 26 27 28 29 30 31 32 33 34 35 36 37 38 39 40 41 42 43 44 45 46 47 48 49 50

000
ASUS43 KMPX 271610
RWRMN
WEATHER ROUNDUP FOR MINNESOTA
NATIONAL WEATHER SERVICE TWIN CITIES/CHANHASSEN MN
1100 AM CDT THU JUL 27 2017


NOTE: "FAIR" INDICATES FEW OR NO CLOUDS BELOW 12,000 FEET WITH NO
SIGNIFICANT WEATHER AND/OR OBSTRUCTIONS TO VISIBILITY. N/A MEANS
CURRENT SKY AND/OR WEATHER CONDITIONS ARE NOT AVAILABLE.

MNZ060>063-068>070-271700-
   Twin Cities Metro

CITY           SKY/WX    TMP DP  RH WIND       PRES   REMARKS
TWIN CITIES    SUNNY     80  60  50 CALM      30.09R
ST PAUL        SUNNY     79  61  53 E7        30.08S
CRYSTAL        SUNNY     79  57  46 VRB5      30.08R
BLAINE         SUNNY     81  61  50 NE6       30.09R
LAKEVILLE      SUNNY     77  63  61 NE3       30.09R
EDEN PRAIRIE   SUNNY     80  60  50 CALM      30.08S
SOUTH ST PAUL  SUNNY     79  60  52 N3        30.08S
LAKE ELMO      FAIR      79  63  57 E7        30.09S
$$
MNZ001>005-007-008-013>017-022>024-027-028-271700-
   Northwest Minnesota

CITY           SKY/WX    TMP DP  RH WIND       PRES   REMARKS
BEMIDJI        MOSUNNY   77  58  52 N3        30.14R
HALLOCK        SUNNY     77  63  61 NW7       30.11S
ROSEAU         SUNNY     75  63  64 CALM      30.12S
WARROAD        SUNNY     75  66  73 CALM      30.12S
THIEF RVR FALL   N/A     74  64  71 SW6       30.15S
CROOKSTON      CLOUDY    73  63  68 NW3       30.14S
FOSSTON        MOSUNNY   77  61  57 NW3       30.15S
DETROIT LAKES  SUNNY     75  59  57 CALM      30.16R
MOORHEAD       SUNNY     75  63  64 CALM      30.14S
PARK RAPIDS    SUNNY     77  58  51 N7        30.13F
MAHNOMEN       FAIR      74  61  63 NW6       30.14S
$$
MNZ006-009>011-018-025>026-271700-
   North Central Minnesota

CITY           SKY/WX    TMP DP  RH WIND       PRES   REMARKS
FLAG ISLAND    MOSUNNY   75  61  60 CALM      30.11R
INTL FALLS     SUNNY     78  58  49 CALM      30.11S
WASKISH        MOSUNNY   75  64  69 W5        30.13S
BIG FORK       MOSUNNY   77  61  57 CALM      30.12S
LONGVILLE      SUNNY     75  63  64 CALM      30.13S
GRAND RAPIDS   SUNNY     75  61  61 CALM      30.14S
CRANE LAKE     CLOUDY    73  63  68 CALM      30.12S
ORR            MOSUNNY   75  57  53 CALM      30.10R
COOK             N/A     73  59  60 CALM      30.12S
WALKER         FAIR      74  62  64 CALM      30.13S
$$
MNZ012-019>021-037-271700-
   Northeast Minnesota

CITY           SKY/WX    TMP DP  RH WIND       PRES   REMARKS
DULUTH         MOSUNNY   75  60  59 SE8       30.11S
ELY            SUNNY     75  54  46 CALM      30.12R
HIBBING        SUNNY     75  57  53 CALM      30.12R
EVELETH        MOSUNNY   78  56  46 CALM      30.13R
DULUTH HARBOR  SUNNY     73  64  73 CALM      30.10S
TWO HARBORS    SUNNY     79  64  61 E8        30.09S
GRAND MARAIS     N/A     66  53  63 E9        30.12R
G MARAIS ARPRT SUNNY     68  52  56 SE6       30.16R
$$
MNZ029>031-032-039>041-046>048-054>057-064-271700-
   West Central Minnesota

CITY           SKY/WX    TMP DP  RH WIND       PRES   REMARKS
FERGUS FALLS   SUNNY     77  61  57 CALM      30.12S
WHEATON        SUNNY     75  63  64 CALM      30.15S
MORRIS         SUNNY     81  64  57 CALM      30.13S
ALEXANDRIA     SUNNY     77  61  57 VRB5      30.15S
ELBOW LAKE       N/A     76  62  62 CALM      30.14S HAZE
WADENA         SUNNY     75  61  60 NE3       30.13S
GLENWOOD       SUNNY     79  61  53 CALM      30.15R
APPLETON       SUNNY     77  63  61 W3        30.12S
BENSON         SUNNY     81  57  44 CALM      30.14S
ORTONVILLE     SUNNY     77  63  61 MISG        N/A
MADISON        SUNNY     81  63  54 CALM      30.13S
WILLMAR        FAIR      77  63  61 NE5       30.14R
$$
MNZ033>034-036-042>043-049>051-058-059-271700-
   Central Minnesota

CITY           SKY/WX    TMP DP  RH WIND       PRES   REMARKS
ST CLOUD       SUNNY     77  63  61 CALM      30.11S
SAUK CENTRE    FAIR      76  61  60 CALM      30.13S
PAYNESVILLE    SUNNY     79  60  51 NE3       30.13R
AITKIN         SUNNY     75  61  60 CALM      30.11S
PINE RIVER     SUNNY     77  61  57 N6        30.15S
BRAINERD       SUNNY     77  60  55 N6        30.12S
STAPLES        SUNNY     75  59  57 NE3       30.13S
LONG PRAIRIE   FAIR      73  61  64 CALM      30.14S
LITTLE FALLS   SUNNY     75  59  57 CALM      30.13R
LITCHFIELD     SUNNY     79  63  57 CALM      30.12R
BUFFALO        SUNNY     76  60  56 N3        30.12R
MAPLE LAKE     SUNNY     80  63  57 CALM      30.12R
HUTCHINSON     SUNNY     78  64  60 NE5       30.12S
$$
MNZ037-044-045-052-053-271700-
   East Central Minnesota

CITY           SKY/WX    TMP DP  RH WIND       PRES   REMARKS
PRINCETON      SUNNY     81  61  50 E6        30.10S
MORA           SUNNY     75  59  57 CALM      30.12S
CAMBRIDGE      SUNNY     79  63  57 NE3       30.08F
RUSH CITY      SUNNY     77  61  58 N3        30.10S
MOOSE LAKE     SUNNY     75  59  57 N3        30.09S
HINCKLEY       FAIR      77  63  61 N5        30.10F
CLOQUET        SUNNY     75  55  50 E3        30.12R
MCGREGOR       PTSUNNY   77  59  53 CALM      30.13S
$$
MNZ071>073-080-081-089-090-097-098-271700-
   Southwest Minnesota

CITY           SKY/WX    TMP DP  RH WIND       PRES   REMARKS
MONTEVIDEO     SUNNY     82  64  54 CALM      30.13S
GRANITE FALLS  SUNNY     79  63  57 CALM      30.14S
CANBY          SUNNY     78  61  55 CALM      30.15S
MARSHALL       SUNNY     74  64  71 NW5       30.13S
REDWOOD FALLS  SUNNY     79  62  56 N8        30.11S
OLIVIA         SUNNY     77  63  61 NE5       30.11S
PIPESTONE      SUNNY     75  61  60 SE5       30.14S
WINDOM         SUNNY     77  63  61 N6        30.12S
WORTHINGTON    SUNNY     75  63  66 NE8       30.14S
JACKSON        SUNNY     75  63  64 CALM      30.12S
TRACY          SUNNY     74  65  73 N5        30.14S
SLAYTON        HVY RAIN  74  58  58 CALM      30.15S
$$
MNZ065>067-074>077-082>085-091>093-271700-
   South Central Minnesota

CITY           SKY/WX    TMP DP  RH WIND       PRES   REMARKS
MANKATO        SUNNY     76  65  68 NE6       30.10S
NEW ULM        SUNNY     77  61  57 N5        30.10S
ST JAMES       SUNNY     77  64  65 N5        30.10F
FAIRMONT       SUNNY     78  65  63 VRB3      30.10S
GLENCOE        SUNNY     78  66  66 E6        30.10S
FARIBAULT      SUNNY     77  66  69 N3        30.09S
OWATONNA       SUNNY     77  66  69 N5        30.09S
WASECA         SUNNY     77  64  65 N5        30.10S
ALBERT LEA     SUNNY     79  66  65 NE5       30.08S
$$
MNZ078>079-086>088-094>096-271700-
   Southeast Minnesota

CITY           SKY/WX    TMP DP  RH WIND       PRES   REMARKS
ROCHESTER      SUNNY     78  66  66 NE7       30.08S
RED WING       SUNNY     79  61  53 NE3       30.06S
STANTON        SUNNY     76  65  68 N3        30.08R
DODGE CENTER   SUNNY     75  64  69 N6        30.09S
WINONA         SUNNY     77  63  61 CALM      30.06R
AUSTIN         SUNNY     79  64  61 NE5       30.07F
PRESTON        SUNNY     75  61  61 NE5       30.08S
$$
ABBREVIATIONS USED IN REMARKS
   TC - TEMPERATURES IN CELSIUS
  WCI - WIND CHILL INDEX
   HX - HEAT INDEX
  VSB - VISIBILITY
$$




USA.gov is the U.S. government's official web portal to all federal, state and local government web resources and services.